Location: Catacaguana
(10.4120°N, 66.7591°W)
Time: 06:33:01
(UTC+00:00)

Cosmos 841 Rocket - Pass Details

Date: 27 May 2022
Orbit: 747 x 771 km, 74.0° (Epoch: 26 June)

Event Time Altitude Azimuth Distance (km) Brightness Sun altitude
Rises 00:07:19 0° 348° (NNW) 3,192 7.3 -19.5°
Reaches altitude 10° 00:09:40 10° 349° (N) 2,271 6.4 -20.0°
Maximum altitude 00:14:49 83° 78° (ENE) 766 3.3 -21.1°
Enters shadow 00:16:51 38° 161° (SSE) 1,141 4.0 -21.5°
